FW7889 Weather Reports


Display with metric or nautical units.
time (UTC)temp
F
wind
direction
speed
MPH
gust
MPH
rain 1hr
in
rain 24hr
in
rain mn
in
humidity
%
barometer
mb
20260504045808 42 237 5.0 6.0 0.00 0.00 0.00 99 1063.2
20260504044805 41 244 4.0 5.0 0.00 0.00 0.00 99 1063.6
20260504043800 41 268 0.0 1.0 0.00 0.00 0.00 99 1063.4
20260504042755 41 255 2.0 2.0 0.00 0.00 0.00 99 1063.2
20260504041753 41 267 1.0 1.0 0.00 0.00 0.00 99 1063.1
20260504040750 41 262 0.0 1.0 0.00 0.00 0.00 99 1063.1
20260504035750 41 249 1.0 1.0 0.00 0.00 0.00 99 1063.2
20260504034745 41 243 3.0 3.0 0.00 0.00 0.00 99 1063.4
20260504033745 41 242 3.0 3.0 0.00 0.00 0.00 99 1063.4
20260504032745 41 266 0.0 0.0 0.00 0.00 0.00 99 1063.2
20260504031745 41 261 1.0 1.0 0.00 0.00 0.00 99 1063.5
20260504030744 41 246 3.0 3.0 0.00 0.00 0.00 99 1063.7
20260504025744 41 254 2.0 2.0 0.00 0.00 0.00 99 1063.8
20260504024744 41 249 2.0 2.0 0.00 0.00 0.00 99 1063.9
20260504023743 41 257 2.0 2.0 0.00 0.00 0.00 98 1063.6
20260504022741 41 257 2.0 2.0 0.00 0.00 0.00 96 1064.2
20260504021740 41 258 1.0 1.0 0.00 0.00 0.00 95 1063.9
20260504020740 41 257 1.0 1.0 0.00 0.00 0.00 94 1064.1
20260504015739 41 249 1.0 1.0 0.00 0.00 0.00 93 1063.9
20260504014737 42 256 1.0 1.0 0.00 0.00 0.00 92 1064.1
20260504013732 42 244 2.0 2.0 0.00 0.00 0.00 90 1063.8
20260504012731 42 252 1.0 2.0 0.00 0.00 0.00 88 1064.1
20260504011726 42 252 2.0 2.0 0.00 0.00 0.00 87 1063.8
20260504010725 42 257 1.0 1.0 0.00 0.00 0.00 86 1064.2
20260504005723 42 257 1.0 1.0 0.00 0.00 0.00 84 1063.7
20260504004718 43 264 1.0 2.0 0.00 0.00 0.00 81 1063.8
20260504003717 43 260 4.0 6.0 0.00 0.00 0.00 78 1064.4
20260504002717 44 237 3.0 3.0 0.00 0.00 0.00 75 1064.2
20260504001712 45 212 4.0 6.0 0.00 0.00 0.00 68 1063.9
20260504000711 46 265 3.0 3.0 0.00 0.00 0.00 63 1063.7
20260503235706 46 224 3.0 5.0 0.00 0.00 0.00 62 1063.7
20260503234706 46 234 2.0 2.0 0.00 0.00 0.00 60 1063.6
20260503233701 47 265 1.0 2.0 0.00 0.00 0.00 57 1063.4
20260503232659 47 250 3.0 3.0 0.00 0.00 0.00 56 1063.4
20260503231655 47 250 1.0 1.0 0.00 0.00 0.00 55 1063.3
20260503230653 47 285 3.0 3.0 0.00 0.00 0.00 53 1063.3
20260503225653 47 289 1.0 1.0 0.00 0.00 0.00 52 1063.1
20260503224651 47 306 3.0 3.0 0.00 0.00 0.00 50 1063.0
20260503223646 47 258 1.0 1.0 0.00 0.00 0.00 48 1063.2
20260503222646 47 359 2.0 3.0 0.00 0.00 0.00 47 1063.2
20260503221642 48 277 3.0 7.0 0.00 0.00 0.00 45 1063.3
20260503220641 47 298 8.0 11.0 0.00 0.00 0.00 45 1063.1
20260503215641 48 352 5.0 8.0 0.00 0.00 0.00 44 1063.3
20260503214636 48 293 6.0 8.0 0.00 0.00 0.00 44 1063.1
20260503213631 47 285 6.0 7.0 0.00 0.00 0.00 46 1063.3
20260503212631 48 334 4.0 5.0 0.00 0.00 0.00 46 1063.2
20260503211626 48 235 5.0 7.0 0.00 0.00 0.00 46 1063.3
20260503210623 48 297 5.0 7.0 0.00 0.00 0.00 46 1062.8
20260503205622 49 302 1.0 2.0 0.00 0.00 0.00 46 1062.9
20260503204621 50 257 5.0 7.0 0.00 0.00 0.00 46 1062.7
20260503203621 48 357 4.0 6.0 0.00 0.00 0.00 45 1063.1
20260503202621 48 283 4.0 5.0 0.00 0.00 0.00 43 1062.9
20260503201617 49 264 3.0 3.0 0.00 0.00 0.00 39 1062.9
20260503200615 49 302 5.0 7.0 0.00 0.00 0.00 40 1062.8
20260503195615 49 236 7.0 9.0 0.00 0.00 0.00 37 1062.9
20260503194615 49 269 5.0 6.0 0.00 0.00 0.00 37 1063.2
20260503193613 49 316 5.0 6.0 0.00 0.00 0.00 37 1063.0
20260503192610 49 245 1.0 5.0 0.00 0.00 0.00 36 1063.1
20260503191609 49 258 7.0 9.0 0.00 0.00 0.00 39 1063.3
20260503190609 48 332 11.0 14.0 0.00 0.00 0.00 39 1063.6
20260503185608 48 333 4.0 7.0 0.00 0.00 0.00 41 1063.5
20260503184603 47 321 5.0 7.0 0.00 0.00 0.00 43 1063.6
20260503183603 48 316 4.0 6.0 0.00 0.00 0.00 43 1063.6
20260503182558 48 344 7.0 8.0 0.00 0.00 0.00 43 1063.5
20260503181553 46 6 6.0 7.0 0.00 0.00 0.00 46 1063.7
20260503180552 46 324 7.0 9.0 0.00 0.00 0.00 46 1063.8
20260503175547 46 297 3.0 5.0 0.00 0.00 0.00 46 1063.8
20260503174547 46 337 6.0 8.0 0.00 0.00 0.00 47 1063.9
20260503173544 45 325 5.0 6.0 0.00 0.00 0.00 50 1064.2
20260503172544 46 351 6.0 8.0 0.00 0.00 0.00 48 1064.3
20260503171543 46 274 1.0 1.0 0.00 0.00 0.00 48 1064.1
20260503170543 44 335 5.0 6.0 0.00 0.00 0.00 52 1064.4
20260503150525 42 326 3.0 3.0 0.00 0.00 0.00 57 1065.2
20260503130516 38 266 2.0 2.0 0.00 0.00 0.00 76 1065.8
20260503110447 34 292 0.0 0.0 0.00 0.00 0.00 97 1065.6
20260503090431 33 283 0.0 0.0 0.00 0.00 0.00 98 1065.1
20260503081422 33 284 0.0 0.0 0.00 0.00 0.00 97 1065.5
20260503080421 33 277 0.0 0.0 0.00 0.00 0.00 98 1065.4
20260503072413 33 286 0.0 0.0 0.00 0.00 0.00 97 1065.2
20260503071413 33 286 0.0 0.0 0.00 0.00 0.00 97 1065.5
20260503070412 33 286 0.0 0.0 0.00 0.00 0.00 96 1065.1